User: anonymous   Login
Location: Ostrava
(49.8330°N, 18.2830°E)
Time: 00:21:20
(UTC+02:00)
Language:

Vanguard 2 Rocket - Orbit

View from above orbital plane
View from above orbital plane
View from above satellite
View from above satellite

Ground track
Ground track

The orbit data is extracted from the following two-line orbital elements,

1 00012U 59001B   16241.24766818  .00000146  00000-0  79560-4 0  9996
2 00012  32.9025 170.6249 1665636 333.4017  18.9733 11.43992597363394
Epoch (UTC): 28 August 2016 05:56:38
Eccentricity: 0.1665636
inclination: 32.9025°
perigee height: 556 km
apogee height: 3327 km
right ascension of ascending node: 170.6249°
argument of perigee: 333.4017°
revolutions per day: 11.43992597
mean anomaly at epoch: 18.9733°
orbit number at epoch: 36339

The dashed part of the orbit path shows where the satellite is in the earth's shadow,  

DLR